Tabellarische Ansicht des 1.3.2023


Die einzelnen Werte des Tages

Uhrzeit Temperatur Luftdruck Luftfeuchte Wind Hi-Wind Taupunkt THW Index Wind Chill Heat Index Solar- strahlung Regen

00:00

-3.7 C

1028.2 hpa

82 %

0.0 km/h aus 116

0.0 km/h aus ---

-6.3 C

-3.9 C

-3.7 C

-3.9 C

0 W/m

0.00 mm

00:05

-3.8 C

1028.2 hpa

82 %

0.0 km/h aus 113

0.0 km/h aus ---

-6.4 C

-3.9 C

-3.8 C

-3.9 C

0 W/m

0.00 mm

00:10

-3.8 C

1028.2 hpa

82 %

0.0 km/h aus 117

0.0 km/h aus ---

-6.4 C

-3.9 C

-3.8 C

-3.9 C

0 W/m

0.00 mm

00:15

-3.8 C

1028.2 hpa

82 %

0.0 km/h aus 115

0.0 km/h aus ---

-6.5 C

-4.0 C

-3.8 C

-4.0 C

0 W/m

0.00 mm

00:20

-3.9 C

1028.2 hpa

83 %

0.0 km/h aus 114

0.0 km/h aus ---

-6.4 C

-4.0 C

-3.9 C

-4.0 C

0 W/m

0.00 mm

00:25

-3.9 C

1028.2 hpa

83 %

0.0 km/h aus 114

0.0 km/h aus ---

-6.4 C

-4.1 C

-3.9 C

-4.1 C

0 W/m

0.00 mm

00:30

-3.9 C

1028.2 hpa

83 %

0.0 km/h aus 116

0.0 km/h aus ---

-6.4 C

-4.1 C

-3.9 C

-4.1 C

0 W/m

0.00 mm

00:35

-4.0 C

1028.2 hpa

83 %

0.0 km/h aus 117

0.0 km/h aus ---

-6.5 C

-4.1 C

-4.0 C

-4.1 C

0 W/m

0.00 mm

00:40

-4.1 C

1028.2 hpa

83 %

0.0 km/h aus 116

0.0 km/h aus ---

-6.5 C

-4.2 C

-4.1 C

-4.2 C

0 W/m

0.00 mm

00:45

-4.1 C

1028.2 hpa

83 %

0.0 km/h aus 117

0.0 km/h aus ---

-6.6 C

-4.2 C

-4.1 C

-4.2 C

0 W/m

0.00 mm

00:50

-4.2 C

1028.2 hpa

83 %

0.0 km/h aus 117

0.0 km/h aus ---

-6.7 C

-4.3 C

-4.2 C

-4.3 C

0 W/m

0.00 mm

00:55

-4.3 C

1028.2 hpa

83 %

0.0 km/h aus 117

0.0 km/h aus ---

-6.7 C

-4.4 C

-4.3 C

-4.4 C

0 W/m

0.00 mm

01:00

-4.3 C

1028.2 hpa

83 %

0.0 km/h aus 117

0.0 km/h aus ---

-6.7 C

-4.4 C

-4.3 C

-4.4 C

0 W/m

0.00 mm

01:05

-4.3 C

1028.2 hpa

83 %

0.0 km/h aus 116

0.0 km/h aus ---

-6.8 C

-4.4 C

-4.3 C

-4.4 C

0 W/m

0.00 mm

01:10

-4.4 C

1028.2 hpa

83 %

0.0 km/h aus 117

0.0 km/h aus ---

-6.8 C

-4.5 C

-4.4 C

-4.5 C

0 W/m

0.00 mm

01:15

-4.5 C

1028.2 hpa

83 %

0.0 km/h aus 115

0.0 km/h aus ---

-7.0 C

-4.6 C

-4.5 C

-4.6 C

0 W/m

0.00 mm

01:20

-4.6 C

1028.2 hpa

83 %

0.0 km/h aus 114

0.0 km/h aus ---

-7.0 C

-4.7 C

-4.6 C

-4.7 C

0 W/m

0.00 mm

01:25

-4.6 C

1028.2 hpa

83 %

0.0 km/h aus 113

0.0 km/h aus ---

-7.1 C

-4.7 C

-4.6 C

-4.7 C

0 W/m

0.00 mm

01:30

-4.7 C

1028.3 hpa

84 %

0.0 km/h aus 114

0.0 km/h aus ---

-7.0 C

-4.8 C

-4.7 C

-4.8 C

0 W/m

0.00 mm

01:35

-4.7 C

1028.3 hpa

84 %

0.0 km/h aus 116

0.0 km/h aus ---

-7.0 C

-4.8 C

-4.7 C

-4.8 C

0 W/m

0.00 mm

01:40

-4.8 C

1028.3 hpa

84 %

0.0 km/h aus 117

0.0 km/h aus ---

-7.1 C

-4.9 C

-4.8 C

-4.9 C

0 W/m

0.00 mm

01:45

-4.8 C

1028.3 hpa

84 %

0.0 km/h aus 116

0.0 km/h aus ---

-7.1 C

-4.9 C

-4.8 C

-4.9 C

0 W/m

0.00 mm

01:50

-4.9 C

1028.3 hpa

84 %

0.0 km/h aus 117

0.0 km/h aus ---

-7.2 C

-5.0 C

-4.9 C

-5.0 C

0 W/m

0.00 mm

01:55

-4.9 C

1028.3 hpa

84 %

0.0 km/h aus 117

0.0 km/h aus ---

-7.2 C

-5.0 C

-4.9 C

-5.0 C

0 W/m

0.00 mm

02:00

-5.0 C

1028.2 hpa

84 %

0.0 km/h aus 117

0.0 km/h aus ---

-7.3 C

-5.1 C

-5.0 C

-5.1 C

0 W/m

0.00 mm

02:05

-5.1 C

1028.2 hpa

84 %

0.0 km/h aus 117

0.0 km/h aus ---

-7.3 C

-5.2 C

-5.1 C

-5.2 C

0 W/m

0.00 mm

02:10

-5.1 C

1028.2 hpa

84 %

0.0 km/h aus 117

0.0 km/h aus ---

-7.4 C

-5.2 C

-5.1 C

-5.2 C

0 W/m

0.00 mm

02:15

-5.2 C

1028.1 hpa

84 %

0.0 km/h aus 117

0.0 km/h aus ---

-7.4 C

-5.3 C

-5.2 C

-5.3 C

0 W/m

0.00 mm

02:20

-5.2 C

1028.1 hpa

84 %

0.0 km/h aus 116

0.0 km/h aus ---

-7.5 C

-5.3 C

-5.2 C

-5.3 C

0 W/m

0.00 mm

02:25

-5.3 C

1028.1 hpa

84 %

0.0 km/h aus 115

0.0 km/h aus ---

-7.6 C

-5.4 C

-5.3 C

-5.4 C

0 W/m

0.00 mm

02:30

-5.3 C

1028.0 hpa

84 %

0.0 km/h aus 114

0.0 km/h aus ---

-7.6 C

-5.4 C

-5.3 C

-5.4 C

0 W/m

0.00 mm

02:35

-5.4 C

1028.0 hpa

84 %

0.0 km/h aus 115

0.0 km/h aus ---

-7.7 C

-5.5 C

-5.4 C

-5.5 C

0 W/m

0.00 mm

02:40

-5.4 C

1028.0 hpa

84 %

0.0 km/h aus 114

0.0 km/h aus ---

-7.7 C

-5.6 C

-5.4 C

-5.6 C

0 W/m

0.00 mm

02:45

-5.5 C

1027.9 hpa

85 %

0.0 km/h aus 114

0.0 km/h aus ---

-7.6 C

-5.6 C

-5.5 C

-5.6 C

0 W/m

0.00 mm

02:50

-5.5 C

1027.9 hpa

85 %

0.0 km/h aus 117

0.0 km/h aus ---

-7.6 C

-5.6 C

-5.5 C

-5.6 C

0 W/m

0.00 mm

02:55

-5.6 C

1027.9 hpa

85 %

0.0 km/h aus 115

0.0 km/h aus ---

-7.7 C

-5.7 C

-5.6 C

-5.7 C

0 W/m

0.00 mm

03:00

-5.6 C

1027.8 hpa

85 %

0.0 km/h aus 115

0.0 km/h aus ---

-7.7 C

-5.7 C

-5.6 C

-5.7 C

0 W/m

0.00 mm

03:05

-5.6 C

1027.8 hpa

85 %

0.0 km/h aus 117

0.0 km/h aus ---

-7.7 C

-5.7 C

-5.6 C

-5.7 C

0 W/m

0.00 mm

03:10

-5.7 C

1027.8 hpa

85 %

0.0 km/h aus 115

0.0 km/h aus ---

-7.8 C

-5.8 C

-5.7 C

-5.8 C

0 W/m

0.00 mm

03:15

-5.7 C

1027.8 hpa

85 %

0.0 km/h aus 117

0.0 km/h aus ---

-7.8 C

-5.8 C

-5.7 C

-5.8 C

0 W/m

0.00 mm

03:20

-5.7 C

1027.8 hpa

85 %

0.0 km/h aus 116

0.0 km/h aus ---

-7.8 C

-5.8 C

-5.7 C

-5.8 C

0 W/m

0.00 mm

03:25

-5.8 C

1027.8 hpa

85 %

0.0 km/h aus 116

0.0 km/h aus ---

-7.9 C

-5.9 C

-5.8 C

-5.9 C

0 W/m

0.00 mm

03:30

-5.8 C

1027.8 hpa

85 %

0.0 km/h aus 117

0.0 km/h aus ---

-8.0 C

-5.9 C

-5.8 C

-5.9 C

0 W/m

0.00 mm

03:35

-5.9 C

1027.8 hpa

85 %

0.0 km/h aus 118

0.0 km/h aus ---

-8.0 C

-6.0 C

-5.9 C

-6.0 C

0 W/m

0.00 mm

03:40

-5.9 C

1027.8 hpa

85 %

0.0 km/h aus 116

0.0 km/h aus ---

-8.1 C

-6.1 C

-5.9 C

-6.1 C

0 W/m

0.00 mm

03:45

-6.0 C

1027.7 hpa

85 %

0.0 km/h aus 115

0.0 km/h aus ---

-8.1 C

-6.1 C

-6.0 C

-6.1 C

0 W/m

0.00 mm

03:50

-6.1 C

1027.7 hpa

85 %

0.0 km/h aus 113

0.0 km/h aus ---

-8.2 C

-6.2 C

-6.1 C

-6.2 C

0 W/m

0.00 mm

03:55

-6.1 C

1027.7 hpa

86 %

0.0 km/h aus 113

0.0 km/h aus ---

-8.0 C

-6.2 C

-6.1 C

-6.2 C

0 W/m

0.00 mm

04:00

-6.1 C

1027.6 hpa

86 %

0.0 km/h aus 114

0.0 km/h aus ---

-8.1 C

-6.2 C

-6.1 C

-6.2 C

0 W/m

0.00 mm

04:05

-6.1 C

1027.6 hpa

86 %

0.0 km/h aus 116

0.0 km/h aus ---

-8.1 C

-6.2 C

-6.1 C

-6.2 C

0 W/m

0.00 mm

04:10

-6.1 C

1027.6 hpa

86 %

0.0 km/h aus 117

0.0 km/h aus ---

-8.1 C

-6.2 C

-6.1 C

-6.2 C

0 W/m

0.00 mm

04:15

-6.1 C

1027.4 hpa

86 %

0.0 km/h aus 117

0.0 km/h aus ---

-8.1 C

-6.2 C

-6.1 C

-6.2 C

0 W/m

0.00 mm

04:20

-6.1 C

1027.4 hpa

86 %

0.0 km/h aus 115

0.0 km/h aus ---

-8.1 C

-6.2 C

-6.1 C

-6.2 C

0 W/m

0.00 mm

04:25

-6.1 C

1027.4 hpa

86 %

0.0 km/h aus 115

0.0 km/h aus ---

-8.1 C

-6.2 C

-6.1 C

-6.2 C

0 W/m

0.00 mm

04:30

-6.1 C

1027.3 hpa

86 %

0.0 km/h aus 116

0.0 km/h aus ---

-8.1 C

-6.2 C

-6.1 C

-6.2 C

0 W/m

0.00 mm

04:35

-6.1 C

1027.3 hpa

86 %

0.0 km/h aus 117

0.0 km/h aus ---

-8.1 C

-6.2 C

-6.1 C

-6.2 C

0 W/m

0.00 mm

04:40

-6.2 C

1027.3 hpa

86 %

0.0 km/h aus 118

0.0 km/h aus ---

-8.1 C

-6.3 C

-6.2 C

-6.3 C

0 W/m

0.00 mm

04:45

-6.2 C

1027.2 hpa

86 %

0.0 km/h aus 114

0.0 km/h aus ---

-8.1 C

-6.3 C

-6.2 C

-6.3 C

0 W/m

0.00 mm

04:50

-6.2 C

1027.2 hpa

86 %

0.0 km/h aus 117

0.0 km/h aus ---

-8.1 C

-6.3 C

-6.2 C

-6.3 C

0 W/m

0.00 mm

04:55

-6.2 C

1027.2 hpa

86 %

0.0 km/h aus 116

0.0 km/h aus ---

-8.2 C

-6.3 C

-6.2 C

-6.3 C

0 W/m

0.00 mm

05:00

-6.2 C

1027.2 hpa

87 %

0.0 km/h aus 116

0.0 km/h aus ---

-8.0 C

-6.3 C

-6.2 C

-6.3 C

0 W/m

0.00 mm

05:05

-6.2 C

1027.2 hpa

87 %

0.0 km/h aus 112

0.0 km/h aus ---

-8.0 C

-6.3 C

-6.2 C

-6.3 C

0 W/m

0.00 mm

05:10

-6.3 C

1027.2 hpa

87 %

0.0 km/h aus 114

0.0 km/h aus ---

-8.1 C

-6.4 C

-6.3 C

-6.4 C

0 W/m

0.00 mm

05:15

-6.3 C

1027.2 hpa

87 %

0.0 km/h aus 114

0.0 km/h aus ---

-8.1 C

-6.4 C

-6.3 C

-6.4 C

0 W/m

0.00 mm

05:20

-6.3 C

1027.2 hpa

87 %

0.0 km/h aus 115

0.0 km/h aus ---

-8.1 C

-6.4 C

-6.3 C

-6.4 C

0 W/m

0.00 mm

05:25

-6.3 C

1027.2 hpa

87 %

0.0 km/h aus 115

0.0 km/h aus ---

-8.1 C

-6.4 C

-6.3 C

-6.4 C

0 W/m

0.00 mm

05:30

-6.4 C

1027.2 hpa

87 %

0.0 km/h aus 115

0.0 km/h aus ---

-8.2 C

-6.5 C

-6.4 C

-6.5 C

0 W/m

0.00 mm

05:35

-6.4 C

1027.2 hpa

87 %

0.0 km/h aus 117

0.0 km/h aus ---

-8.3 C

-6.6 C

-6.4 C

-6.6 C

0 W/m

0.00 mm

05:40

-6.5 C

1027.2 hpa

87 %

0.0 km/h aus 117

0.0 km/h aus ---

-8.3 C

-6.6 C

-6.5 C

-6.6 C

0 W/m

0.00 mm

05:45

-6.5 C

1027.2 hpa

87 %

0.0 km/h aus 116

0.0 km/h aus ---

-8.3 C

-6.6 C

-6.5 C

-6.6 C

0 W/m

0.00 mm

05:50

-6.6 C

1027.2 hpa

87 %

0.0 km/h aus 118

0.0 km/h aus ---

-8.4 C

-6.7 C

-6.6 C

-6.7 C

0 W/m

0.00 mm

05:55

-6.6 C

1027.2 hpa

87 %

0.0 km/h aus 116

0.0 km/h aus ---

-8.4 C

-6.7 C

-6.6 C

-6.7 C

0 W/m

0.00 mm

06:00

-6.6 C

1027.2 hpa

87 %

0.0 km/h aus 117

0.0 km/h aus ---

-8.4 C

-6.7 C

-6.6 C

-6.7 C

0 W/m

0.00 mm

06:05

-6.6 C

1027.2 hpa

87 %

0.0 km/h aus 117

0.0 km/h aus ---

-8.4 C

-6.7 C

-6.6 C

-6.7 C

0 W/m

0.00 mm

06:10

-6.6 C

1027.2 hpa

87 %

0.0 km/h aus 117

0.0 km/h aus ---

-8.4 C

-6.7 C

-6.6 C

-6.7 C

0 W/m

0.00 mm

06:15

-6.6 C

1027.2 hpa

87 %

0.0 km/h aus 116

0.0 km/h aus ---

-8.4 C

-6.7 C

-6.6 C

-6.7 C

0 W/m

0.00 mm

06:20

-6.6 C

1027.2 hpa

88 %

0.0 km/h aus 116

0.0 km/h aus ---

-8.3 C

-6.7 C

-6.6 C

-6.7 C

0 W/m

0.00 mm

06:25

-6.6 C

1027.2 hpa

88 %

0.0 km/h aus 114

0.0 km/h aus ---

-8.3 C

-6.7 C

-6.6 C

-6.7 C

0 W/m

0.00 mm

06:30

-6.7 C

1027.1 hpa

88 %

0.0 km/h aus 115

0.0 km/h aus ---

-8.3 C

-6.7 C

-6.7 C

-6.7 C

0 W/m

0.00 mm

06:35

-6.7 C

1027.1 hpa

88 %

0.0 km/h aus 114

0.0 km/h aus ---

-8.4 C

-6.8 C

-6.7 C

-6.8 C

0 W/m

0.00 mm

06:40

-6.7 C

1027.1 hpa

87 %

0.0 km/h aus 114

0.0 km/h aus ---

-8.5 C

-6.8 C

-6.7 C

-6.8 C

0 W/m

0.00 mm

06:45

-6.8 C

1027.1 hpa

88 %

0.0 km/h aus 114

0.0 km/h aus ---

-8.4 C

-6.8 C

-6.8 C

-6.8 C

0 W/m

0.00 mm

06:50

-6.8 C

1027.1 hpa

88 %

0.0 km/h aus 117

0.0 km/h aus ---

-8.4 C

-6.8 C

-6.8 C

-6.8 C

0 W/m

0.00 mm

06:55

-6.8 C

1027.1 hpa

88 %

0.0 km/h aus 118

0.0 km/h aus ---

-8.5 C

-6.9 C

-6.8 C

-6.9 C

0 W/m

0.00 mm

07:00

-6.9 C

1027.1 hpa

88 %

0.0 km/h aus 117

0.0 km/h aus ---

-8.5 C

-6.9 C

-6.9 C

-6.9 C

0 W/m

0.00 mm

07:05

-6.9 C

1027.1 hpa

88 %

0.0 km/h aus 116

0.0 km/h aus ---

-8.6 C

-7.0 C

-6.9 C

-7.0 C

0 W/m

0.00 mm

07:10

-6.9 C

1027.1 hpa

88 %

0.0 km/h aus 117

0.0 km/h aus ---

-8.6 C

-7.0 C

-6.9 C

-7.0 C

5 W/m

0.00 mm

07:15

-7.0 C

1027.2 hpa

88 %

0.0 km/h aus 117

0.0 km/h aus ---

-8.7 C

-7.1 C

-7.0 C

-7.1 C

7 W/m

0.00 mm

07:20

-7.1 C

1027.2 hpa

88 %

0.0 km/h aus 117

0.0 km/h aus ---

-8.7 C

-7.1 C

-7.1 C

-7.1 C

9 W/m

0.00 mm

07:25

-7.1 C

1027.2 hpa

88 %

0.0 km/h aus 117

0.0 km/h aus ---

-8.8 C

-7.2 C

-7.1 C

-7.2 C

11 W/m

0.00 mm

07:30

-7.2 C

1027.2 hpa

88 %

0.0 km/h aus 115

0.0 km/h aus ---

-8.8 C

-7.2 C

-7.2 C

-7.2 C

13 W/m

0.00 mm

07:35

-7.1 C

1027.2 hpa

88 %

0.0 km/h aus 117

0.0 km/h aus ---

-8.8 C

-7.2 C

-7.1 C

-7.2 C

15 W/m

0.00 mm

07:40

-7.1 C

1027.2 hpa

88 %

0.0 km/h aus 116

0.0 km/h aus ---

-8.8 C

-7.2 C

-7.1 C

-7.2 C

17 W/m

0.00 mm

07:45

-7.1 C

1027.2 hpa

88 %

0.0 km/h aus 117

0.0 km/h aus ---

-8.7 C

-7.1 C

-7.1 C

-7.1 C

19 W/m

0.00 mm

07:50

-7.0 C

1027.2 hpa

88 %

0.0 km/h aus 115

0.0 km/h aus ---

-8.7 C

-7.1 C

-7.0 C

-7.1 C

21 W/m

0.00 mm

07:55

-7.0 C

1027.2 hpa

88 %

0.0 km/h aus 114

0.0 km/h aus ---

-8.7 C

-7.1 C

-7.0 C

-7.1 C

23 W/m

0.00 mm

08:00

-6.8 C

1027.1 hpa

89 %

0.0 km/h aus 114

0.0 km/h aus ---

-8.3 C

-6.9 C

-6.8 C

-6.9 C

25 W/m

0.00 mm

08:05

-6.7 C

1027.1 hpa

89 %

0.0 km/h aus 116

0.0 km/h aus ---

-8.2 C

-6.8 C

-6.7 C

-6.8 C

26 W/m

0.00 mm

08:10

-6.6 C

1027.1 hpa

89 %

0.0 km/h aus 114

0.0 km/h aus ---

-8.1 C

-6.7 C

-6.6 C

-6.7 C

27 W/m

0.00 mm

08:15

-6.4 C

1027.0 hpa

89 %

0.0 km/h aus 117

0.0 km/h aus ---

-7.9 C

-6.4 C

-6.4 C

-6.4 C

63 W/m

0.00 mm

08:20

-6.1 C

1027.0 hpa

89 %

0.0 km/h aus 116

0.0 km/h aus ---

-7.6 C

-6.2 C

-6.1 C

-6.2 C

96 W/m

0.00 mm

08:25

-5.8 C

1027.0 hpa

90 %

0.0 km/h aus 117

0.0 km/h aus ---

-7.2 C

-5.9 C

-5.8 C

-5.9 C

144 W/m

0.00 mm

08:30

-5.5 C

1026.8 hpa

90 %

0.0 km/h aus 117

0.0 km/h aus ---

-6.9 C

-5.6 C

-5.5 C

-5.6 C

144 W/m

0.00 mm

08:35

-4.8 C

1026.8 hpa

91 %

0.0 km/h aus 116

0.0 km/h aus ---

-6.1 C

-4.9 C

-4.8 C

-4.9 C

146 W/m

0.00 mm

08:40

-3.6 C

1026.8 hpa

92 %

0.0 km/h aus 116

0.0 km/h aus ---

-4.7 C

-3.6 C

-3.6 C

-3.6 C

160 W/m

0.00 mm

08:45

-3.2 C

1026.8 hpa

90 %

0.0 km/h aus 117

0.0 km/h aus ---

-4.6 C

-3.3 C

-3.2 C

-3.3 C

175 W/m

0.00 mm

08:50

-2.9 C

1026.8 hpa

90 %

0.0 km/h aus 114

0.0 km/h aus ---

-4.4 C

-3.0 C

-2.9 C

-3.0 C

204 W/m

0.00 mm

08:55

-2.7 C

1026.8 hpa

90 %

0.0 km/h aus 114

0.0 km/h aus ---

-4.1 C

-2.8 C

-2.7 C

-2.8 C

209 W/m

0.00 mm

09:00

-2.4 C

1026.7 hpa

90 %

0.0 km/h aus 116

0.0 km/h aus ---

-3.9 C

-2.6 C

-2.4 C

-2.6 C

217 W/m

0.00 mm

09:05

-2.2 C

1026.7 hpa

89 %

0.0 km/h aus 117

0.0 km/h aus ---

-3.8 C

-2.3 C

-2.2 C

-2.3 C

233 W/m

0.00 mm

09:10

-2.0 C

1026.7 hpa

88 %

0.0 km/h aus 118

0.0 km/h aus ---

-3.7 C

-2.1 C

-2.0 C

-2.1 C

249 W/m

0.00 mm

09:15

-1.7 C

1026.7 hpa

88 %

0.0 km/h aus 117

0.0 km/h aus ---

-3.4 C

-1.8 C

-1.7 C

-1.8 C

261 W/m

0.00 mm

09:20

-1.7 C

1026.7 hpa

87 %

0.0 km/h aus 114

0.0 km/h aus ---

-3.5 C

-1.8 C

-1.7 C

-1.8 C

273 W/m

0.00 mm

09:25

-1.4 C

1026.7 hpa

86 %

0.0 km/h aus 113

0.0 km/h aus ---

-3.5 C

-1.6 C

-1.4 C

-1.6 C

287 W/m

0.00 mm

09:30

-1.2 C

1026.7 hpa

86 %

0.0 km/h aus 114

0.0 km/h aus ---

-3.2 C

-1.3 C

-1.2 C

-1.3 C

299 W/m

0.00 mm

09:35

-0.7 C

1026.7 hpa

86 %

0.0 km/h aus 117

0.0 km/h aus ---

-2.7 C

-0.8 C

-0.7 C

-0.8 C

311 W/m

0.00 mm

09:40

-0.6 C

1026.7 hpa

85 %

0.0 km/h aus 117

0.0 km/h aus ---

-2.8 C

-0.7 C

-0.6 C

-0.7 C

322 W/m

0.00 mm

09:45

-0.2 C

1026.7 hpa

85 %

0.0 km/h aus 117

0.0 km/h aus ---

-2.4 C

-0.3 C

-0.2 C

-0.3 C

332 W/m

0.00 mm

09:50

-0.1 C

1026.7 hpa

84 %

0.0 km/h aus 117

0.0 km/h aus ---

-2.4 C

-0.2 C

-0.1 C

-0.2 C

342 W/m

0.00 mm

09:55

0.1 C

1026.7 hpa

83 %

0.0 km/h aus 114

0.0 km/h aus ---

-2.5 C

-0.1 C

0.1 C

-0.1 C

351 W/m

0.00 mm

10:00

0.2 C

1026.7 hpa

83 %

0.0 km/h aus 116

0.0 km/h aus ---

-2.3 C

0.1 C

0.2 C

0.1 C

362 W/m

0.00 mm

10:05

0.4 C

1026.7 hpa

82 %

0.0 km/h aus 114

0.0 km/h aus ---

-2.3 C

0.3 C

0.4 C

0.3 C

372 W/m

0.00 mm

10:10

0.8 C

1026.7 hpa

82 %

0.0 km/h aus 117

0.0 km/h aus ---

-1.9 C

0.7 C

0.8 C

0.7 C

381 W/m

0.00 mm

10:15

0.9 C

1026.6 hpa

80 %

0.0 km/h aus 118

3.2 km/h aus NNE

-2.2 C

0.7 C

0.9 C

0.7 C

390 W/m

0.00 mm

10:20

1.3 C

1026.6 hpa

80 %

0.0 km/h aus 116

0.0 km/h aus ---

-1.7 C

1.1 C

1.3 C

1.1 C

400 W/m

0.00 mm

10:25

1.5 C

1026.6 hpa

80 %

0.0 km/h aus 114

0.0 km/h aus ---

-1.6 C

1.3 C

1.5 C

1.3 C

407 W/m

0.00 mm

10:30

1.7 C

1026.5 hpa

78 %

0.0 km/h aus 117

0.0 km/h aus ---

-1.7 C

1.6 C

1.7 C

1.6 C

414 W/m

0.00 mm

10:35

2.1 C

1026.5 hpa

78 %

0.0 km/h aus 116

0.0 km/h aus ---

-1.3 C

1.9 C

2.1 C

1.9 C

421 W/m

0.00 mm

10:40

2.8 C

1026.5 hpa

75 %

1.6 km/h aus 116

8.0 km/h aus NNE

-1.2 C

2.6 C

2.8 C

2.6 C

430 W/m

0.00 mm

10:45

3.2 C

1026.2 hpa

70 %

3.2 km/h aus 117

16.1 km/h aus N

-1.7 C

2.6 C

2.9 C

2.9 C

438 W/m

0.00 mm

10:50

3.4 C

1026.2 hpa

67 %

3.2 km/h aus 113

9.7 km/h aus NNE

-2.2 C

2.8 C

3.2 C

3.0 C

445 W/m

0.00 mm

10:55

3.7 C

1026.2 hpa

65 %

1.6 km/h aus 115

6.4 km/h aus ENE

-2.3 C

3.3 C

3.7 C

3.3 C

454 W/m

0.00 mm

11:00

4.0 C

1026.1 hpa

64 %

3.2 km/h aus 115

14.5 km/h aus NNE

-2.2 C

3.4 C

3.8 C

3.6 C

461 W/m

0.00 mm

11:05

4.1 C

1026.1 hpa

62 %

4.8 km/h aus 117

14.5 km/h aus NNE

-2.5 C

2.7 C

3.2 C

3.7 C

466 W/m

0.00 mm

11:10

4.2 C

1026.1 hpa

61 %

8.0 km/h aus 117

17.7 km/h aus NNE

-2.7 C

1.7 C

2.2 C

3.7 C

473 W/m

0.00 mm

11:15

4.3 C

1026.1 hpa

61 %

6.4 km/h aus 114

14.5 km/h aus N

-2.5 C

2.4 C

2.8 C

3.9 C

477 W/m

0.00 mm

11:20

4.3 C

1026.1 hpa

59 %

8.0 km/h aus 115

19.3 km/h aus NE

-3.0 C

1.9 C

2.3 C

3.9 C

483 W/m

0.00 mm

11:25

4.3 C

1026.1 hpa

59 %

8.0 km/h aus 117

16.1 km/h aus NE

-3.0 C

1.9 C

2.3 C

3.9 C

486 W/m

0.00 mm

11:30

4.4 C

1026.0 hpa

58 %

9.7 km/h aus 117

20.9 km/h aus NE

-3.2 C

1.5 C

2.0 C

3.9 C

491 W/m

0.00 mm

11:35

4.7 C

1026.0 hpa

59 %

8.0 km/h aus 117

22.5 km/h aus NE

-2.7 C

2.3 C

2.7 C

4.2 C

495 W/m

0.00 mm

11:40

4.6 C

1026.0 hpa

57 %

11.3 km/h aus 115

22.5 km/h aus NE

-3.2 C

1.3 C

1.8 C

4.1 C

499 W/m

0.00 mm

11:45

4.8 C

1025.8 hpa

57 %

9.7 km/h aus 114

24.1 km/h aus NNE

-3.0 C

2.0 C

2.5 C

4.3 C

501 W/m

0.00 mm

11:50

4.8 C

1025.8 hpa

56 %

9.7 km/h aus 116

25.7 km/h aus ENE

-3.2 C

2.0 C

2.6 C

4.3 C

503 W/m

0.00 mm

11:55

4.7 C

1025.8 hpa

57 %

9.7 km/h aus 117

24.1 km/h aus ENE

-3.1 C

1.9 C

2.4 C

4.2 C

506 W/m

0.00 mm

12:00

5.1 C

1025.7 hpa

57 %

9.7 km/h aus 117

25.7 km/h aus N

-2.8 C

2.3 C

2.8 C

4.6 C

508 W/m

0.00 mm

12:05

4.9 C

1025.7 hpa

57 %

12.9 km/h aus 116

20.9 km/h aus N

-2.9 C

1.6 C

2.1 C

4.4 C

509 W/m

0.00 mm

12:10

5.0 C

1025.7 hpa

56 %

8.0 km/h aus 114

19.3 km/h aus NE

-3.1 C

2.6 C

3.1 C

4.4 C

509 W/m

0.00 mm

12:15

5.4 C

1025.6 hpa

55 %

9.7 km/h aus 116

19.3 km/h aus NE

-2.9 C

2.6 C

3.2 C

4.8 C

509 W/m

0.00 mm

12:20

5.2 C

1025.6 hpa

55 %

8.0 km/h aus 118

20.9 km/h aus NNW

-3.1 C

2.8 C

3.3 C

4.6 C

511 W/m

0.00 mm

12:25

5.3 C

1025.6 hpa

55 %

9.7 km/h aus 117

22.5 km/h aus NE

-3.0 C

2.5 C

3.1 C

4.7 C

511 W/m

0.00 mm

12:30

5.5 C

1025.6 hpa

55 %

11.3 km/h aus 116

22.5 km/h aus NE

-2.8 C

2.4 C

3.0 C

4.9 C

512 W/m

0.00 mm

12:35

5.4 C

1025.6 hpa

54 %

11.3 km/h aus 113

24.1 km/h aus NNE

-3.1 C

2.4 C

2.9 C

4.9 C

511 W/m

0.00 mm

12:40

5.6 C

1025.6 hpa

55 %

9.7 km/h aus 117

22.5 km/h aus NE

-2.8 C

2.8 C

3.4 C

5.0 C

510 W/m

0.00 mm

12:45

5.6 C

1025.3 hpa

54 %

12.9 km/h aus 117

25.7 km/h aus NNE

-3.0 C

2.3 C

2.8 C

5.1 C

508 W/m

0.00 mm

12:50

5.4 C

1025.3 hpa

56 %

6.4 km/h aus 117

20.9 km/h aus NE

-2.6 C

3.6 C

4.1 C

4.9 C

506 W/m

0.00 mm

12:55

5.5 C

1025.3 hpa

56 %

8.0 km/h aus 116

20.9 km/h aus NE

-2.6 C

3.2 C

3.7 C

4.9 C

506 W/m

0.00 mm

13:00

5.5 C

1025.2 hpa

54 %

12.9 km/h aus 114

24.1 km/h aus NNE

-3.1 C

2.2 C

2.7 C

4.9 C

505 W/m

0.00 mm

13:05

5.8 C

1025.2 hpa

53 %

11.3 km/h aus 116

25.7 km/h aus NNE

-3.1 C

2.8 C

3.3 C

5.2 C

505 W/m

0.00 mm

13:10

5.6 C

1025.2 hpa

53 %

11.3 km/h aus 117

27.4 km/h aus ENE

-3.2 C

2.6 C

3.1 C

5.1 C

504 W/m

0.00 mm

13:15

5.9 C

1025.0 hpa

54 %

9.7 km/h aus 117

20.9 km/h aus N

-2.7 C

3.2 C

3.8 C

5.3 C

501 W/m

0.00 mm

13:20

5.9 C

1025.0 hpa

55 %

8.0 km/h aus 115

16.1 km/h aus NE

-2.4 C

3.7 C

4.2 C

5.4 C

497 W/m

0.00 mm

13:25

5.9 C

1025.0 hpa

53 %

12.9 km/h aus 114

25.7 km/h aus N

-3.0 C

2.6 C

3.2 C

5.3 C

494 W/m

0.00 mm

13:30

5.8 C

1024.9 hpa

53 %

11.3 km/h aus 117

22.5 km/h aus ENE

-3.1 C

2.8 C

3.3 C

5.2 C

492 W/m

0.00 mm

13:35

5.6 C

1024.9 hpa

54 %

9.7 km/h aus 117

17.7 km/h aus NNE

-3.0 C

2.8 C

3.4 C

5.0 C

488 W/m

0.00 mm

13:40

5.8 C

1024.9 hpa

54 %

9.7 km/h aus 117

19.3 km/h aus NE

-2.8 C

3.2 C

3.7 C

5.3 C

481 W/m

0.00 mm

13:45

5.9 C

1024.6 hpa

53 %

9.7 km/h aus 116

20.9 km/h aus NNE

-3.0 C

3.2 C

3.8 C

5.3 C

478 W/m

0.00 mm

13:50

6.1 C

1024.6 hpa

53 %

9.7 km/h aus 113

22.5 km/h aus NE

-2.8 C

3.5 C

4.1 C

5.6 C

473 W/m

0.00 mm

13:55

5.8 C

1024.6 hpa

55 %

6.4 km/h aus 116

19.3 km/h aus NNE

-2.5 C

4.0 C

4.6 C

5.3 C

468 W/m

0.00 mm

14:00

6.1 C

1024.4 hpa

55 %

8.0 km/h aus 117

20.9 km/h aus NE

-2.3 C

3.9 C

4.4 C

5.6 C

464 W/m

0.00 mm

14:05

6.3 C

1024.4 hpa

53 %

6.4 km/h aus 116

14.5 km/h aus N

-2.6 C

4.6 C

5.1 C

5.8 C

460 W/m

0.00 mm

14:10

6.3 C

1024.4 hpa

52 %

11.3 km/h aus 115

22.5 km/h aus NE

-2.8 C

3.4 C

4.1 C

5.7 C

452 W/m

0.00 mm

14:15

6.2 C

1024.1 hpa

51 %

9.7 km/h aus 114

19.3 km/h aus NNE

-3.2 C

3.6 C

4.2 C

5.6 C

446 W/m

0.00 mm

14:20

6.5 C

1024.1 hpa

52 %

8.0 km/h aus 116

19.3 km/h aus E

-2.7 C

4.3 C

4.9 C

5.9 C

417 W/m

0.00 mm

14:25

6.6 C

1024.1 hpa

50 %

8.0 km/h aus 117

17.7 km/h aus NNE

-3.1 C

4.4 C

5.0 C

5.9 C

434 W/m

0.00 mm

14:30

6.3 C

1024.1 hpa

50 %

8.0 km/h aus 118

19.3 km/h aus NE

-3.3 C

4.1 C

4.7 C

5.7 C

426 W/m

0.00 mm

14:35

6.3 C

1024.1 hpa

50 %

9.7 km/h aus 117

22.5 km/h aus ENE

-3.4 C

3.7 C

4.3 C

5.7 C

418 W/m

0.00 mm

14:40

6.3 C

1024.1 hpa

49 %

9.7 km/h aus 113

20.9 km/h aus NE

-3.6 C

3.7 C

4.3 C

5.7 C

410 W/m

0.00 mm

14:45

6.6 C

1023.9 hpa

50 %

4.8 km/h aus 116

12.9 km/h aus NE

-3.1 C

5.4 C

6.0 C

6.0 C

403 W/m

0.00 mm

14:50

6.8 C

1023.9 hpa

47 %

11.3 km/h aus 116

25.7 km/h aus NE

-3.8 C

3.9 C

4.6 C

6.1 C

389 W/m

0.00 mm

14:55

6.5 C

1023.9 hpa

48 %

8.0 km/h aus 117

19.3 km/h aus ENE

-3.7 C

4.2 C

4.9 C

5.8 C

380 W/m

0.00 mm

15:00

6.7 C

1023.8 hpa

48 %

4.8 km/h aus 117

16.1 km/h aus NE

-3.5 C

5.4 C

6.1 C

6.1 C

379 W/m

0.00 mm

15:05

6.8 C

1023.8 hpa

48 %

8.0 km/h aus 113

27.4 km/h aus NNE

-3.5 C

4.6 C

5.2 C

6.1 C

368 W/m

0.00 mm

15:10

6.7 C

1023.8 hpa

49 %

6.4 km/h aus 116

17.7 km/h aus NE

-3.3 C

4.9 C

5.5 C

6.1 C

358 W/m

0.00 mm

15:15

7.0 C

1023.8 hpa

50 %

6.4 km/h aus 117

17.7 km/h aus NNE

-2.7 C

5.3 C

5.9 C

6.4 C

348 W/m

0.00 mm

15:20

6.8 C

1023.8 hpa

49 %

8.0 km/h aus 117

19.3 km/h aus NNE

-3.2 C

4.6 C

5.2 C

6.2 C

337 W/m

0.00 mm

15:25

6.9 C

1023.8 hpa

49 %

3.2 km/h aus 117

16.1 km/h aus NNE

-3.1 C

6.3 C

6.9 C

6.3 C

328 W/m

0.00 mm

15:30

7.0 C

1023.6 hpa

48 %

8.0 km/h aus 115

24.1 km/h aus NNE

-3.3 C

4.8 C

5.5 C

6.3 C

318 W/m

0.00 mm

15:35

6.8 C

1023.6 hpa

48 %

9.7 km/h aus 116

20.9 km/h aus NNE

-3.5 C

4.2 C

4.8 C

6.1 C

307 W/m

0.00 mm

15:40

6.8 C

1023.6 hpa

49 %

9.7 km/h aus 117

20.9 km/h aus N

-3.2 C

4.2 C

4.8 C

6.2 C

294 W/m

0.00 mm

15:45

6.8 C

1023.3 hpa

48 %

12.9 km/h aus 117

24.1 km/h aus NNE

-3.4 C

3.7 C

4.3 C

6.2 C

281 W/m

0.00 mm

15:50

6.8 C

1023.3 hpa

48 %

6.4 km/h aus 117

17.7 km/h aus NNE

-3.5 C

4.9 C

5.6 C

6.1 C

266 W/m

0.00 mm

15:55

6.8 C

1023.3 hpa

48 %

9.7 km/h aus 114

20.9 km/h aus NNE

-3.5 C

4.2 C

4.8 C

6.1 C

252 W/m

0.00 mm

16:00

6.7 C

1023.1 hpa

48 %

8.0 km/h aus 114

20.9 km/h aus NNW

-3.5 C

4.5 C

5.2 C

6.1 C

228 W/m

0.00 mm

16:05

6.6 C

1023.1 hpa

47 %

8.0 km/h aus 117

22.5 km/h aus NNE

-3.9 C

4.4 C

5.1 C

5.9 C

221 W/m

0.00 mm

16:10

6.8 C

1023.1 hpa

48 %

3.2 km/h aus 117

11.3 km/h aus NNE

-3.4 C

6.2 C

6.8 C

6.2 C

206 W/m

0.00 mm

16:15

6.7 C

1023.1 hpa

48 %

8.0 km/h aus 115

22.5 km/h aus NE

-3.5 C

4.5 C

5.2 C

6.1 C

191 W/m

0.00 mm

16:20

6.5 C

1023.1 hpa

48 %

4.8 km/h aus 114

16.1 km/h aus NE

-3.7 C

5.2 C

5.9 C

5.8 C

176 W/m

0.00 mm

16:25

6.4 C

1023.1 hpa

49 %

8.0 km/h aus 115

19.3 km/h aus NE

-3.5 C

4.2 C

4.8 C

5.8 C

161 W/m

0.00 mm

16:30

6.4 C

1023.1 hpa

47 %

6.4 km/h aus 117

14.5 km/h aus ENE

-4.1 C

4.6 C

5.3 C

5.8 C

146 W/m

0.00 mm

16:35

6.3 C

1023.1 hpa

47 %

9.7 km/h aus 116

17.7 km/h aus NNE

-4.2 C

3.7 C

4.3 C

5.7 C

126 W/m

0.00 mm

16:40

6.3 C

1023.1 hpa

48 %

6.4 km/h aus 118

17.7 km/h aus NNE

-3.9 C

4.4 C

5.1 C

5.6 C

118 W/m

0.00 mm

16:45

6.3 C

1023.0 hpa

48 %

3.2 km/h aus 116

11.3 km/h aus NE

-3.9 C

5.7 C

6.3 C

5.7 C

105 W/m

0.00 mm

16:50

6.3 C

1023.0 hpa

48 %

6.4 km/h aus 113

19.3 km/h aus NNE

-3.9 C

4.4 C

5.1 C

5.6 C

92 W/m

0.00 mm

16:55

6.1 C

1023.0 hpa

49 %

3.2 km/h aus 117

12.9 km/h aus ENE

-3.8 C

5.5 C

6.1 C

5.5 C

79 W/m

0.00 mm

17:00

6.0 C

1022.8 hpa

49 %

3.2 km/h aus 116

9.7 km/h aus NNE

-3.9 C

5.4 C

6.0 C

5.4 C

68 W/m

0.00 mm

17:05

5.9 C

1022.8 hpa

49 %

4.8 km/h aus 117

11.3 km/h aus NE

-4.0 C

4.6 C

5.2 C

5.3 C

54 W/m

0.00 mm

17:10

5.8 C

1022.8 hpa

50 %

4.8 km/h aus 117

14.5 km/h aus NE

-3.8 C

4.5 C

5.1 C

5.2 C

45 W/m

0.00 mm

17:15

5.7 C

1022.8 hpa

50 %

6.4 km/h aus 114

19.3 km/h aus NNE

-3.9 C

3.8 C

4.4 C

5.1 C

32 W/m

0.00 mm

17:20

5.7 C

1022.8 hpa

50 %

4.8 km/h aus 116

11.3 km/h aus NE

-3.9 C

4.4 C

5.0 C

5.1 C

23 W/m

0.00 mm

17:25

5.8 C

1022.8 hpa

50 %

1.6 km/h aus 116

9.7 km/h aus NE

-3.9 C

5.2 C

5.8 C

5.2 C

21 W/m

0.00 mm

17:30

5.7 C

1022.6 hpa

50 %

4.8 km/h aus 117

11.3 km/h aus NE

-3.9 C

4.4 C

5.0 C

5.1 C

19 W/m

0.00 mm

17:35

5.6 C

1022.6 hpa

50 %

1.6 km/h aus 117

8.0 km/h aus NE

-4.0 C

5.0 C

5.6 C

5.0 C

18 W/m

0.00 mm

17:40

5.5 C

1022.6 hpa

51 %

0.0 km/h aus 116

4.8 km/h aus NE

-3.9 C

4.9 C

5.5 C

4.9 C

16 W/m

0.00 mm

17:45

5.4 C

1022.7 hpa

51 %

1.6 km/h aus 115

8.0 km/h aus NE

-4.0 C

4.8 C

5.4 C

4.8 C

13 W/m

0.00 mm

17:50

5.3 C

1022.7 hpa

52 %

0.0 km/h aus 113

1.6 km/h aus NE

-3.8 C

4.7 C

5.3 C

4.7 C

11 W/m

0.00 mm

17:55

5.2 C

1022.7 hpa

52 %

0.0 km/h aus 117

0.0 km/h aus ---

-3.9 C

4.6 C

5.2 C

4.6 C

9 W/m

0.00 mm

18:00

5.0 C

1022.9 hpa

51 %

0.0 km/h aus 116

0.0 km/h aus ---

-4.3 C

4.4 C

5.0 C

4.4 C

7 W/m

0.00 mm

18:05

4.8 C

1022.9 hpa

51 %

0.0 km/h aus 117

0.0 km/h aus ---

-4.5 C

4.2 C

4.8 C

4.2 C

4 W/m

0.00 mm

18:10

4.5 C

1022.9 hpa

51 %

0.0 km/h aus 116

0.0 km/h aus ---

-4.8 C

3.9 C

4.5 C

3.9 C

0 W/m

0.00 mm

18:15

4.2 C

1023.0 hpa

52 %

0.0 km/h aus 115

0.0 km/h aus ---

-4.8 C

3.6 C

4.2 C

3.6 C

0 W/m

0.00 mm

18:20

3.9 C

1023.0 hpa

52 %

0.0 km/h aus 113

0.0 km/h aus ---

-5.0 C

3.4 C

3.9 C

3.4 C

0 W/m

0.00 mm

18:25

3.7 C

1023.0 hpa

53 %

0.0 km/h aus 116

0.0 km/h aus ---

-5.0 C

3.2 C

3.7 C

3.2 C

0 W/m

0.00 mm

18:30

3.5 C

1023.1 hpa

55 %

0.0 km/h aus 117

0.0 km/h aus ---

-4.7 C

3.0 C

3.5 C

3.0 C

0 W/m

0.00 mm

18:35

3.3 C

1023.1 hpa

55 %

0.0 km/h aus 116

0.0 km/h aus ---

-4.9 C

2.8 C

3.3 C

2.8 C

0 W/m

0.00 mm

18:40

3.1 C

1023.1 hpa

56 %

0.0 km/h aus 117

0.0 km/h aus ---

-4.8 C

2.6 C

3.1 C

2.6 C

0 W/m

0.00 mm

18:45

2.9 C

1023.1 hpa

57 %

0.0 km/h aus 116

0.0 km/h aus ---

-4.8 C

2.4 C

2.9 C

2.4 C

0 W/m

0.00 mm

18:50

2.8 C

1023.1 hpa

57 %

0.0 km/h aus 116

0.0 km/h aus ---

-4.9 C

2.3 C

2.8 C

2.3 C

0 W/m

0.00 mm

18:55

2.6 C

1023.1 hpa

59 %

0.0 km/h aus 115

0.0 km/h aus ---

-4.6 C

2.2 C

2.6 C

2.2 C

0 W/m

0.00 mm

19:00

2.4 C

1023.3 hpa

58 %

0.0 km/h aus 113

0.0 km/h aus ---

-5.0 C

2.0 C

2.4 C

2.0 C

0 W/m

0.00 mm

19:05

2.2 C

1023.3 hpa

59 %

0.0 km/h aus 116

0.0 km/h aus ---

-5.0 C

1.8 C

2.2 C

1.8 C

0 W/m

0.00 mm

19:10

2.1 C

1023.3 hpa

60 %

0.0 km/h aus 117

0.0 km/h aus ---

-4.9 C

1.7 C

2.1 C

1.7 C

0 W/m

0.00 mm

19:15

2.0 C

1023.3 hpa

60 %

0.0 km/h aus 117

0.0 km/h aus ---

-5.0 C

1.6 C

2.0 C

1.6 C

0 W/m

0.00 mm

19:20

1.8 C

1023.3 hpa

61 %

0.0 km/h aus 117

0.0 km/h aus ---

-4.9 C

1.4 C

1.8 C

1.4 C

0 W/m

0.00 mm

19:25

1.8 C

1023.3 hpa

62 %

0.0 km/h aus 117

0.0 km/h aus ---

-4.7 C

1.4 C

1.8 C

1.4 C

0 W/m

0.00 mm

19:30

1.7 C

1023.1 hpa

63 %

0.0 km/h aus 117

0.0 km/h aus ---

-4.6 C

1.3 C

1.7 C

1.3 C

0 W/m

0.00 mm

19:35

1.7 C

1023.1 hpa

64 %

0.0 km/h aus 114

0.0 km/h aus ---

-4.4 C

1.3 C

1.7 C

1.3 C

0 W/m

0.00 mm

19:40

1.6 C

1023.1 hpa

65 %

0.0 km/h aus 114

0.0 km/h aus ---

-4.3 C

1.2 C

1.6 C

1.2 C

0 W/m

0.00 mm

19:45

1.5 C

1023.1 hpa

65 %

0.0 km/h aus 115

0.0 km/h aus ---

-4.4 C

1.2 C

1.5 C

1.2 C

0 W/m

0.00 mm

19:50

1.4 C

1023.1 hpa

65 %

0.0 km/h aus 117

0.0 km/h aus ---

-4.5 C

1.1 C

1.4 C

1.1 C

0 W/m

0.00 mm

19:55

1.2 C

1023.1 hpa

65 %

0.0 km/h aus 118

0.0 km/h aus ---

-4.6 C

0.9 C

1.2 C

0.9 C

0 W/m

0.00 mm

20:00

1.1 C

1023.1 hpa

65 %

0.0 km/h aus 117

0.0 km/h aus ---

-4.8 C

0.7 C

1.1 C

0.7 C

0 W/m

0.00 mm

20:05

0.9 C

1023.1 hpa

67 %

0.0 km/h aus 117

0.0 km/h aus ---

-4.6 C

0.6 C

0.9 C

0.6 C

0 W/m

0.00 mm

20:10

0.7 C

1023.1 hpa

67 %

0.0 km/h aus 117

0.0 km/h aus ---

-4.7 C

0.4 C

0.7 C

0.4 C

0 W/m

0.00 mm

20:15

0.6 C

1023.3 hpa

68 %

0.0 km/h aus 117

0.0 km/h aus ---

-4.7 C

0.3 C

0.6 C

0.3 C

0 W/m

0.00 mm

20:20

0.4 C

1023.3 hpa

69 %

0.0 km/h aus 114

0.0 km/h aus ---

-4.6 C

0.2 C

0.4 C

0.2 C

0 W/m

0.00 mm

20:25

0.3 C

1023.3 hpa

70 %

0.0 km/h aus 114

0.0 km/h aus ---

-4.6 C

0.0 C

0.3 C

0.0 C

0 W/m

0.00 mm

20:30

0.2 C

1023.4 hpa

70 %

0.0 km/h aus 115

0.0 km/h aus ---

-4.7 C

-0.1 C

0.2 C

-0.1 C

0 W/m

0.00 mm

20:35

0.1 C

1023.4 hpa

71 %

0.0 km/h aus 117

0.0 km/h aus ---

-4.6 C

-0.2 C

0.1 C

-0.2 C

0 W/m

0.00 mm

20:40

0.0 C

1023.4 hpa

71 %

0.0 km/h aus 117

0.0 km/h aus ---

-4.6 C

-0.3 C

0.0 C

-0.3 C

0 W/m

0.00 mm

20:45

-0.1 C

1023.3 hpa

71 %

0.0 km/h aus 116

0.0 km/h aus ---

-4.7 C

-0.4 C

-0.1 C

-0.4 C

0 W/m

0.00 mm

20:50

-0.3 C

1023.3 hpa

71 %

0.0 km/h aus 116

0.0 km/h aus ---

-4.9 C

-0.6 C

-0.3 C

-0.6 C

0 W/m

0.00 mm

20:55

-0.4 C

1023.3 hpa

71 %

0.0 km/h aus 117

0.0 km/h aus ---

-5.1 C

-0.7 C

-0.4 C

-0.7 C

0 W/m

0.00 mm

21:00

-0.6 C

1023.3 hpa

71 %

0.0 km/h aus 117

0.0 km/h aus ---

-5.2 C

-0.8 C

-0.6 C

-0.8 C

0 W/m

0.00 mm

21:05

-0.7 C

1023.3 hpa

71 %

0.0 km/h aus 114

0.0 km/h aus ---

-5.3 C

-0.9 C

-0.7 C

-0.9 C

0 W/m

0.00 mm

21:10

-0.7 C

1023.3 hpa

72 %

0.0 km/h aus 114

0.0 km/h aus ---

-5.1 C

-1.0 C

-0.7 C

-1.0 C

0 W/m

0.00 mm

21:15

-0.8 C

1023.2 hpa

73 %

0.0 km/h aus 114

0.0 km/h aus ---

-5.1 C

-1.1 C

-0.8 C

-1.1 C

0 W/m

0.00 mm

21:20

-0.8 C

1023.2 hpa

73 %

0.0 km/h aus 117

0.0 km/h aus ---

-5.1 C

-1.1 C

-0.8 C

-1.1 C

0 W/m

0.00 mm

21:25

-0.9 C

1023.2 hpa

74 %

0.0 km/h aus 117

0.0 km/h aus ---

-5.0 C

-1.2 C

-0.9 C

-1.2 C

0 W/m

0.00 mm

21:30

-1.0 C

1023.4 hpa

74 %

0.0 km/h aus 117

0.0 km/h aus ---

-5.1 C

-1.2 C

-1.0 C

-1.2 C

0 W/m

0.00 mm

21:35

-1.1 C

1023.4 hpa

74 %

0.0 km/h aus 116

0.0 km/h aus ---

-5.1 C

-1.3 C

-1.1 C

-1.3 C

0 W/m

0.00 mm

21:40

-1.1 C

1023.4 hpa

74 %

0.0 km/h aus 117

0.0 km/h aus ---

-5.2 C

-1.3 C

-1.1 C

-1.3 C

0 W/m

0.00 mm

21:45

-1.2 C

1023.5 hpa

75 %

0.0 km/h aus 116

0.0 km/h aus ---

-5.0 C

-1.4 C

-1.2 C

-1.4 C

0 W/m

0.00 mm

21:50

-1.3 C

1023.5 hpa

75 %

0.0 km/h aus 116

0.0 km/h aus ---

-5.2 C

-1.6 C

-1.3 C

-1.6 C

0 W/m

0.00 mm

21:55

-1.4 C

1023.5 hpa

75 %

0.0 km/h aus 115

0.0 km/h aus ---

-5.3 C

-1.7 C

-1.4 C

-1.7 C

0 W/m

0.00 mm

22:00

-1.6 C

1023.5 hpa

75 %

0.0 km/h aus 114

0.0 km/h aus ---

-5.4 C

-1.8 C

-1.6 C

-1.8 C

0 W/m

0.00 mm

22:05

-1.7 C

1023.5 hpa

75 %

0.0 km/h aus 115

0.0 km/h aus ---

-5.5 C

-1.9 C

-1.7 C

-1.9 C

0 W/m

0.00 mm

22:10

-1.8 C

1023.5 hpa

75 %

0.0 km/h aus 116

0.0 km/h aus ---

-5.6 C

-2.0 C

-1.8 C

-2.0 C

0 W/m

0.00 mm

22:15

-1.9 C

1023.4 hpa

76 %

0.0 km/h aus 117

0.0 km/h aus ---

-5.6 C

-2.1 C

-1.9 C

-2.1 C

0 W/m

0.00 mm

22:20

-2.0 C

1023.4 hpa

75 %

0.0 km/h aus 117

0.0 km/h aus ---

-5.8 C

-2.2 C

-2.0 C

-2.2 C

0 W/m

0.00 mm

22:25

-2.1 C

1023.4 hpa

76 %

0.0 km/h aus 117

0.0 km/h aus ---

-5.7 C

-2.3 C

-2.1 C

-2.3 C

0 W/m

0.00 mm

22:30

-2.2 C

1023.3 hpa

76 %

0.0 km/h aus 117

0.0 km/h aus ---

-5.9 C

-2.4 C

-2.2 C

-2.4 C

0 W/m

0.00 mm

22:35

-2.3 C

1023.3 hpa

76 %

0.0 km/h aus 117

0.0 km/h aus ---

-5.9 C

-2.5 C

-2.3 C

-2.5 C

0 W/m

0.00 mm

22:40

-2.3 C

1023.3 hpa

76 %

0.0 km/h aus 116

0.0 km/h aus ---

-6.0 C

-2.6 C

-2.3 C

-2.6 C

0 W/m

0.00 mm

22:45

-2.4 C

1023.3 hpa

77 %

0.0 km/h aus 116

0.0 km/h aus ---

-5.9 C

-2.6 C

-2.4 C

-2.6 C

0 W/m

0.00 mm

22:50

-2.4 C

1023.3 hpa

77 %

0.0 km/h aus 114

0.0 km/h aus ---

-5.9 C

-2.7 C

-2.4 C

-2.7 C

0 W/m

0.00 mm

22:55

-2.4 C

1023.3 hpa

78 %

0.0 km/h aus 115

0.0 km/h aus ---

-5.7 C

-2.6 C

-2.4 C

-2.6 C

0 W/m

0.00 mm

23:00

-2.3 C

1023.2 hpa

79 %

0.0 km/h aus 114

0.0 km/h aus ---

-5.5 C

-2.5 C

-2.3 C

-2.5 C

0 W/m

0.00 mm

23:05

-2.3 C

1023.2 hpa

79 %

0.0 km/h aus 117

0.0 km/h aus ---

-5.5 C

-2.5 C

-2.3 C

-2.5 C

0 W/m

0.00 mm

23:10

-2.3 C

1023.2 hpa

80 %

1.6 km/h aus 118

6.4 km/h aus NNW

-5.3 C

-2.5 C

-2.3 C

-2.5 C

0 W/m

0.00 mm

23:15

-2.3 C

1023.1 hpa

80 %

0.0 km/h aus 117

0.0 km/h aus ---

-5.3 C

-2.5 C

-2.3 C

-2.5 C

0 W/m

0.00 mm

23:20

-2.3 C

1023.1 hpa

81 %

0.0 km/h aus 116

0.0 km/h aus ---

-5.2 C

-2.5 C

-2.3 C

-2.5 C

0 W/m

0.00 mm

23:25

-2.3 C

1023.1 hpa

81 %

0.0 km/h aus 116

0.0 km/h aus ---

-5.2 C

-2.5 C

-2.3 C

-2.5 C

0 W/m

0.00 mm

23:30

-2.4 C

1023.1 hpa

81 %

0.0 km/h aus 117

0.0 km/h aus ---

-5.2 C

-2.6 C

-2.4 C

-2.6 C

0 W/m

0.00 mm

23:35

-2.5 C

1023.1 hpa

81 %

0.0 km/h aus 117

0.0 km/h aus ---

-5.3 C

-2.7 C

-2.5 C

-2.7 C

0 W/m

0.00 mm

23:40

-2.6 C

1023.1 hpa

80 %

1.6 km/h aus 116

4.8 km/h aus NNW

-5.5 C

-2.7 C

-2.6 C

-2.7 C

0 W/m

0.00 mm

23:45

-2.7 C

1023.0 hpa

81 %

3.2 km/h aus 114

4.8 km/h aus NNW

-5.5 C

-3.7 C

-3.5 C

-2.8 C

0 W/m

0.00 mm

23:50

-2.7 C

1023.0 hpa

81 %

1.6 km/h aus 114

3.2 km/h aus NNW

-5.5 C

-2.8 C

-2.7 C

-2.8 C

0 W/m

0.00 mm

23:55

-2.7 C

1023.0 hpa

81 %

0.0 km/h aus 114

0.0 km/h aus ---

-5.5 C

-2.8 C

-2.7 C

-2.8 C

0 W/m

0.00 mm